Estación Meteorológica Peña el Pijo (Robertgarden) [ 07/11/20 02:23:19 CEST ]

Fecha Hora Presion(HPa) Temp (°C) Humedad % Rocio (°C) Viento ( m/s) Direccion Lluvia 1Hora(mm) Lluvia 24H(mm) LLuvia Total(mm)
2019-Dec-16 01:09:24 1000.800 - - - - S     39.88
2019-Dec-16 02:13:59 1000.300 - - - - S     39.88
2019-Dec-16 03:09:22 999.800 - - - - S     39.88
2019-Dec-16 04:09:06 999.700 - - - - S     39.88
2019-Dec-16 05:08:48 999.200 - - - - S     39.88
2019-Dec-16 06:08:53 998.600 - - - - S     39.88
2019-Dec-16 07:09:19 998.600 - - - - S     39.88
2019-Dec-16 08:08:53 998.500 - - - - S     39.88
2019-Dec-16 09:08:48 998.100 - - - - S     39.88
2019-Dec-16 10:09:05 998.000 - - - - S     39.88
2019-Dec-16 11:09:14 998.000 - - - - S     39.88
2019-Dec-16 12:09:22 997.000 - - - - S     39.88
2019-Dec-16 13:09:19 995.700 - - - - S     39.88
2019-Dec-16 14:09:21 994.900 - - - - S     39.88
2019-Dec-16 15:09:11 994.000 - - - - S     39.88
2019-Dec-16 16:09:13 993.600 - - - - S     39.88
2019-Dec-16 17:09:05 993.500 - - - - S     39.88
2019-Dec-16 18:08:49 992.800 - - - - S     39.88
2019-Dec-16 19:09:10 992.500 - - - - S     39.88
2019-Dec-16 20:08:44 992.600 - - - - S     39.88
2019-Dec-16 21:09:14 992.800 - - - - S     39.88
2019-Dec-16 22:09:09 992.100 - - - - S     39.88
2019-Dec-16 23:09:09 991.600 - - - - S     39.88

Temperatura Máxima:    Temperatura Mínima:
Presión Máxima:1000.800 Hpa    Presión Mínima:991.600 Hpa


Volver